User: anonymous   Login
Location: Houston
(29.7630°N, 95.3630°W)
Time: 11:57:07
(UTC-06:00)
Language:

ISS - Orbit

View from above orbital plane
View from above orbital plane
View from above satellite
View from above satellite

Ground track
Ground track

The orbit data is extracted from the following two-line orbital elements,

1 25544U 98067A   16040.55883281  .00016717  00000-0  10270-3 0  9019
2 25544  51.6424 339.4947 0006485  93.4155 266.7740 15.54545016 24973
Epoch (UTC): 09 February 2016 13:24:43
Eccentricity: 0.0006485
inclination: 51.6424°
perigee height: 399 km
apogee height: 408 km
right ascension of ascending node: 339.4947°
argument of perigee: 93.4155°
revolutions per day: 15.54545016
mean anomaly at epoch: 266.7740°
orbit number at epoch: 2497

The dashed part of the orbit path shows where the satellite is in the earth's shadow,  

DLR